Date String (YYYY-MM-DD hh:mm:ss) UTC,Instrument flags,Ambient pressure (hPa),Sample flow (lpm),Bypass flow (lpm),Sample temperature (°C),Ambient temperature (°C),ASC tube jacket temperature (°C),LED temperature (°C),Box temperature (°C),Sample RH (%),Span deviation,Mass concentration (μg/m³),Mass concentration (μg/m³),Mass concentration (μg/m³)
DateTimeUTC,F1_M11,P_M11,Q1_M11,Q2_M11,T1_M11,T2_M11,T3_M11,T4_M11,T5_M11,U1_M11,ZSPAN_M11,X2_M11,X0_M11,X1_M11
2022-09-03 16:00:00,,0835.5,5.00,0.00,29.9,28.0,00.0,38.6,31.6,24.7,0001.4,0008.98,0024.01,0007.34
2022-09-03 16:01:00,,0835.5,5.00,0.00,29.9,28.2,00.0,38.6,31.7,24.6,0000.3,0008.92,0024.23,0007.32
2022-09-03 16:02:00,,0835.6,4.98,0.00,29.9,28.4,00.0,38.6,31.7,24.7,0000.0,0008.87,0023.82,0007.30
2022-09-03 16:03:00,,0835.5,5.01,0.00,29.9,28.6,00.0,38.6,31.7,24.5,0000.0,0008.86,0022.19,0007.31
2022-09-03 16:04:00,,0835.5,5.00,0.00,29.9,28.7,00.0,38.7,31.8,24.3,0000.0,0008.84,0022.24,0007.30
2022-09-03 16:05:00,,0835.5,5.00,0.00,30.0,28.8,00.0,38.7,31.9,24.4,0000.0,0008.92,0022.30,0007.31
2022-09-03 16:06:00,,0835.5,5.00,0.00,30.0,28.9,00.0,38.7,31.9,24.1,0000.0,0008.92,0021.84,0007.30
2022-09-03 16:07:00,,0835.5,5.00,0.00,30.0,29.0,00.0,38.7,31.9,23.9,0000.0,0008.95,0021.52,0007.30
2022-09-03 16:08:00,,0835.5,4.99,0.00,30.1,29.0,00.0,38.7,32.0,23.9,0000.0,0008.96,0021.89,0007.29
2022-09-03 16:09:00,,0835.5,5.01,0.00,30.1,27.9,00.0,38.7,31.9,23.7,0000.0,0008.91,0021.06,0007.27
2022-09-03 16:10:00,,0835.5,4.99,0.00,30.0,27.0,00.0,38.7,31.8,23.7,0000.0,0008.84,0020.17,0007.26
2022-09-03 16:11:00,,0835.5,5.00,0.00,30.0,27.1,00.0,38.7,31.7,23.9,0000.0,0008.84,0020.48,0007.26
2022-09-03 16:12:00,,0835.5,5.00,0.00,29.9,27.3,00.0,38.6,31.7,24.1,0000.0,0008.84,0020.37,0007.27
2022-09-03 16:13:00,,0835.5,5.00,0.00,29.9,27.6,00.0,38.6,31.6,24.3,0000.0,0008.88,0020.57,0007.28
2022-09-03 16:14:00,,0835.5,5.01,0.00,29.9,27.9,00.0,38.6,31.7,24.7,0000.0,0008.92,0020.98,0007.29
2022-09-03 16:15:00,,0835.5,5.00,0.00,29.9,28.2,00.0,38.6,31.7,24.6,0000.0,0008.92,0020.63,0007.31
2022-09-03 16:16:00,,0835.5,5.00,0.00,29.9,28.4,00.0,38.6,31.8,24.5,0000.0,0008.89,0020.66,0007.32
2022-09-03 16:17:00,,0835.5,4.99,0.00,29.9,28.5,00.0,38.6,31.7,24.7,0000.0,0008.96,0020.47,0007.34
2022-09-03 16:18:00,,0835.5,5.01,0.00,29.9,28.7,00.0,38.6,31.8,25.0,0000.0,0008.97,0020.11,0007.36
2022-09-03 16:19:00,,0835.5,4.98,0.00,30.0,28.8,00.0,38.7,31.9,25.1,0000.0,0008.98,0019.59,0007.39
2022-09-03 16:20:00,,0835.5,5.01,0.00,30.0,28.9,00.0,38.7,31.9,25.0,0000.0,0009.05,0019.40,0007.42
2022-09-03 16:21:00,,0835.5,4.99,0.00,30.0,28.7,00.0,38.7,31.9,25.2,0000.0,0009.15,0019.44,0007.44
2022-09-03 16:22:00,,0835.5,5.01,0.00,30.0,27.6,00.0,38.7,31.8,25.2,0000.0,0009.19,0020.18,0007.47
2022-09-03 16:23:00,,0835.5,4.99,0.00,29.9,26.9,00.0,38.7,31.7,25.5,0000.0,0009.22,0020.40,0007.52
2022-09-03 16:24:00,,0835.5,5.00,0.00,29.9,27.1,00.0,38.6,31.7,25.4,0000.0,0009.23,0021.18,0007.56
2022-09-03 16:25:00,,0835.5,4.99,0.00,29.9,27.3,00.0,38.6,31.6,25.3,0000.0,0009.28,0021.67,0007.61
2022-09-03 16:26:00,,0835.6,5.01,0.00,29.8,27.7,00.0,38.6,31.6,25.3,0000.0,0009.38,0021.83,0007.64
2022-09-03 16:27:00,,0835.5,5.00,0.00,29.8,28.0,00.0,38.6,31.6,25.4,0000.0,0009.39,0022.16,0007.67
2022-09-03 16:28:00,,0835.6,5.01,0.00,29.8,28.2,00.0,38.6,31.7,25.2,0000.0,0009.37,0022.36,0007.71
2022-09-03 16:29:00,,0835.6,5.01,0.00,29.9,28.4,00.0,38.6,31.7,25.7,0000.0,0009.45,0023.25,0007.76
2022-09-03 16:30:00,,0835.6,4.99,0.00,29.9,28.5,00.0,38.6,31.7,25.9,0000.0,0009.44,0023.51,0007.79
2022-09-03 16:31:00,,0835.6,5.01,0.00,29.9,28.7,00.0,38.6,31.8,25.7,0000.0,0009.47,0023.45,0007.84
2022-09-03 16:32:00,,0835.6,4.98,0.00,29.9,28.8,00.0,38.6,31.9,25.5,0000.0,0009.44,0023.13,0007.89
2022-09-03 16:33:00,,0835.6,5.00,0.00,30.0,28.4,00.0,38.6,31.9,25.4,0000.0,0009.48,0022.70,0007.93
2022-09-03 16:34:00,,0835.6,5.00,0.00,29.9,27.2,00.0,38.6,31.7,25.3,0000.0,0009.54,0022.23,0007.96
2022-09-03 16:35:00,,0835.6,5.00,0.00,29.9,26.8,00.0,38.6,31.6,25.5,0000.0,0009.55,0021.61,0007.97
2022-09-03 16:36:00,,0835.6,5.00,0.00,29.8,27.0,00.0,38.5,31.6,25.6,0000.0,0009.53,0021.55,0007.98
2022-09-03 16:37:00,,0835.7,4.99,0.00,29.8,27.3,00.0,38.5,31.5,25.9,0000.0,0009.46,0022.48,0007.98
2022-09-03 16:38:00,,0835.6,5.00,0.00,29.8,27.7,00.0,38.5,31.5,26.2,0000.0,0009.48,0021.54,0007.98
2022-09-03 16:39:00,,0835.6,5.02,0.00,29.8,27.9,00.0,38.5,31.6,26.0,0000.0,0009.51,0021.36,0007.97
2022-09-03 16:40:00,,0835.6,5.00,0.00,29.8,28.2,00.0,38.5,31.6,25.9,0000.0,0009.45,0021.83,0007.94
2022-09-03 16:41:00,,0835.6,4.98,0.00,29.8,28.3,00.0,38.5,31.6,25.9,0000.0,0009.45,0021.20,0007.92
2022-09-03 16:42:00,,0835.6,5.01,0.00,29.8,28.5,00.0,38.5,31.7,26.0,0000.0,0009.39,0021.21,0007.90
2022-09-03 16:43:00,,0835.6,5.00,0.00,29.8,28.7,00.0,38.5,31.8,25.8,0000.0,0009.38,0021.09,0007.89
2022-09-03 16:44:00,,0835.6,5.00,0.00,29.9,28.8,00.0,38.6,31.8,25.6,0000.0,0009.33,0021.12,0007.85
2022-09-03 16:45:00,,0835.6,5.00,0.00,29.9,28.9,00.0,38.6,31.8,25.3,0000.0,0009.32,0021.24,0007.83
2022-09-03 16:46:00,,0835.6,4.98,0.00,29.9,28.2,00.0,38.6,31.8,25.2,0000.0,0009.33,0020.75,0007.82
2022-09-03 16:47:00,,0835.7,5.00,0.00,29.9,27.1,00.0,38.6,31.6,25.5,0000.0,0009.33,0020.55,0007.82
2022-09-03 16:48:00,,0835.6,4.99,0.00,29.8,26.9,00.0,38.5,31.6,26.0,0000.0,0009.39,0020.86,0007.83
2022-09-03 16:49:00,,0835.6,5.00,0.00,29.8,27.1,00.0,38.5,31.5,25.8,0000.0,0009.41,0021.10,0007.87
2022-09-03 16:50:00,,0835.6,5.01,0.00,29.7,27.4,00.0,38.5,31.5,26.2,0000.0,0009.44,0021.75,0007.91
2022-09-03 16:51:00,,0835.6,4.99,0.00,29.7,27.7,00.0,38.5,31.5,26.1,0000.0,0009.45,0021.04,0007.95
2022-09-03 16:52:00,,0835.6,5.00,0.00,29.7,28.0,00.0,38.5,31.5,26.1,0000.0,0009.51,0021.17,0008.00
2022-09-03 16:53:00,,0835.6,5.01,0.00,29.7,28.2,00.0,38.5,31.6,26.1,0000.0,0009.58,0021.59,0008.03
2022-09-03 16:54:00,,0835.6,4.99,0.00,29.8,28.4,00.0,38.5,31.6,26.2,0000.0,0009.71,0022.47,0008.06
2022-09-03 16:55:00,,0835.6,5.01,0.00,29.8,28.6,00.0,38.5,31.7,26.4,0000.0,0009.76,0022.57,0008.08
2022-09-03 16:56:00,,0835.6,5.01,0.00,29.8,28.7,00.0,38.5,31.8,26.2,0000.0,0009.75,0022.72,0008.10
2022-09-03 16:57:00,,0835.6,4.99,0.00,29.9,28.8,00.0,38.5,31.7,25.8,0000.0,0009.75,0023.53,0008.11
2022-09-03 16:58:00,,0835.6,5.01,0.00,29.9,28.8,00.0,38.6,31.8,24.4,0000.0,0009.79,0024.02,0008.14
2022-09-03 16:59:00,,0835.6,4.98,0.00,29.9,27.9,00.0,38.6,31.8,24.7,0000.0,0009.82,0023.71,0008.16
